Plattsmouth, NE

6:31 PM CDT on April 30, 2017 (GMT -0500)
Plattsmouth Municipal

Weather History for KPMV - October, 2011

Change the Weather History Date:

Thursday, October 20, 2011

  Actual Average (KOFF) Record (KOFF)
Temperature  
Mean Temperature 42 °F -  
Max Temperature 53 °F 61 °F 86 °F (2003)
Min Temperature 30 °F 41 °F 29 °F (2006)
Degree Days  
Heating Degree Days 24    
Moisture  
Dew Point 30 °F    
Average Humidity 69    
Maximum Humidity 93    
Minimum Humidity 41    
Precipitation  
Precipitation 0.00 in - - ()
Sea Level Pressure  
Sea Level Pressure 30.05 in    
Wind  
Wind Speed 5 mph (NW)    
Max Wind Speed 13 mph    
Max Gust Speed 17 mph    
Visibility 10 miles    
Events      
Averages and records for this station are not official NWS values.
T = Trace of Precipitation, MM = Missing Value Source: NWS Daily Summary

Daily Weather History Graph

Daily Weather History Graph

Search for Another Location

Airport or City:

Trip Planner

Search our weather history database for the weather conditions in past years. The results will help you decide how hot, cold, wet, or windy it might be!

Date:

Astronomy

Oct. 20, 2011 Rise Set
Actual Time 7:40 AM CDT 6:35 PM CDT
Civil Twilight 7:12 AM CDT 7:03 PM CDT
Nautical Twilight 6:40 AM CDT 7:35 PM CDT
Astronomical Twilight 6:08 AM CDT 8:07 PM CDT
Moon 12:23 AM CDT (10/20) 2:48 PM CDT (10/20)
Length of Visible Light 11h 51m
Length of Day
10h 55m
Last Quarter, 44% of the Moon is Illuminated
Oct 20
Last Quarter
Oct 26
New
Nov 2
First Quarter
Nov 10
Full
Nov 18
Last Quarter

Hourly Weather History & Observations

Time (CDT) Temp. Windchill Dew Point Humidity Pressure Visibility Wind Dir Wind Speed Gust Speed Precip Events Conditions
12:15 AM 32.0 °F 25.6 °F 26.6 °F 80% 30.04 in 10.0 mi WNW 6.9 mph - N/A   Clear
12:35 AM 32.0 °F 26.4 °F 26.6 °F 80% 30.04 in 10.0 mi WNW 5.8 mph - N/A   Clear
1:15 AM 32.0 °F 25.6 °F 26.6 °F 80% 30.04 in 10.0 mi WNW 6.9 mph - N/A   Clear
1:35 AM 32.0 °F 25.6 °F 26.6 °F 80% 30.05 in 10.0 mi WNW 6.9 mph - N/A   Clear
1:55 AM 30.2 °F 24.3 °F 26.6 °F 86% 30.05 in 10.0 mi WNW 5.8 mph - N/A   Mostly Cloudy
2:35 AM 32.0 °F - 28.4 °F 87% 30.05 in 10.0 mi Calm Calm - N/A   Overcast
2:55 AM 33.8 °F - 30.2 °F 87% 30.04 in 10.0 mi Calm Calm - N/A   Overcast
3:35 AM 32.0 °F - 30.2 °F 93% 30.04 in 10.0 mi Calm Calm - N/A   Scattered Clouds
3:55 AM 32.0 °F - 28.4 °F 87% 30.04 in 10.0 mi Calm Calm - N/A   Clear
4:15 AM 32.0 °F 25.6 °F 30.2 °F 93% 30.04 in 10.0 mi NW 6.9 mph - N/A   Clear
4:35 AM 32.0 °F 25.6 °F 28.4 °F 87% 30.03 in 10.0 mi WNW 6.9 mph - N/A   Clear
4:55 AM 32.0 °F 25.6 °F 28.4 °F 87% 30.04 in 10.0 mi WNW 6.9 mph - N/A   Clear
5:15 AM 32.0 °F - 28.4 °F 87% 30.04 in 10.0 mi Calm Calm - N/A   Clear
5:35 AM 32.0 °F - 28.4 °F 87% 30.04 in 10.0 mi Calm Calm - N/A   Clear
5:55 AM 32.0 °F - 28.4 °F 87% 30.04 in 10.0 mi Calm Calm - N/A   Clear
6:15 AM 30.2 °F - 28.4 °F 93% 30.05 in 10.0 mi Calm Calm - N/A   Clear
6:35 AM 30.2 °F - 28.4 °F 93% 30.05 in 10.0 mi Calm Calm - N/A   Clear
6:55 AM 32.0 °F - 28.4 °F 87% 30.04 in 10.0 mi Calm Calm - N/A   Clear
7:15 AM 30.2 °F - 26.6 °F 86% 30.04 in 10.0 mi Calm Calm - N/A   Clear
7:35 AM 30.2 °F 23.4 °F 28.4 °F 93% 30.04 in 10.0 mi WNW 6.9 mph - N/A   Clear
7:55 AM 32.0 °F - 28.4 °F 87% 30.04 in 10.0 mi Calm Calm - N/A   Clear
8:15 AM 32.0 °F - 30.2 °F 93% 30.05 in 10.0 mi Calm Calm - N/A   Clear
8:35 AM 32.0 °F - 30.2 °F 93% 30.06 in 10.0 mi Calm Calm - N/A   Clear
8:55 AM 33.8 °F 27.0 °F 32.0 °F 93% 30.06 in 10.0 mi WNW 8.1 mph - N/A   Clear
9:15 AM 35.6 °F 30.7 °F 32.0 °F 87% 30.07 in 10.0 mi NW 5.8 mph - N/A   Clear
9:35 AM 35.6 °F 29.2 °F 32.0 °F 87% 30.07 in 10.0 mi NW 8.1 mph - N/A   Clear
9:55 AM 37.4 °F 31.4 °F 32.0 °F 81% 30.07 in 10.0 mi NW 8.1 mph - N/A   Clear
10:15 AM 41.0 °F 35.2 °F 32.0 °F 70% 30.08 in 10.0 mi NW 9.2 mph - N/A   Clear
10:35 AM 42.8 °F 38.0 °F 32.0 °F 66% 30.08 in 10.0 mi WNW 8.1 mph - N/A   Clear
10:55 AM 42.8 °F 37.0 °F 32.0 °F 66% 30.08 in 10.0 mi NW 10.4 mph - N/A   Clear
11:15 AM 44.6 °F 39.2 °F 32.0 °F 61% 30.08 in 10.0 mi NW 10.4 mph - N/A   Clear
11:55 AM 46.4 °F 40.7 °F 32.0 °F 57% 30.07 in 10.0 mi NNW 12.7 mph 16.1 mph N/A   Clear
12:15 PM 48.2 °F - 32.0 °F 54% 30.07 in 10.0 mi NW 10.4 mph 17.3 mph N/A   Scattered Clouds
12:35 PM 46.4 °F 41.9 °F 32.0 °F 57% 30.07 in 10.0 mi NNW 9.2 mph - N/A   Scattered Clouds
12:55 PM 50.0 °F - 30.2 °F 47% 30.06 in 10.0 mi NW 11.5 mph - N/A   Scattered Clouds
1:35 PM 50.0 °F - 30.2 °F 47% 30.05 in 10.0 mi NW 12.7 mph - N/A   Clear
1:55 PM 50.0 °F - 30.2 °F 47% 30.04 in 10.0 mi NW 8.1 mph 16.1 mph N/A   Clear
2:15 PM 51.8 °F - 30.2 °F 44% 30.03 in 10.0 mi WNW 11.5 mph 16.1 mph N/A   Clear
2:35 PM 51.8 °F - 30.2 °F 44% 30.03 in 10.0 mi NW 8.1 mph - N/A   Clear
3:15 PM 51.8 °F - 30.2 °F 44% 30.02 in 10.0 mi NW 8.1 mph 17.3 mph N/A   Clear
3:35 PM 51.8 °F - 30.2 °F 44% 30.01 in 10.0 mi NW 9.2 mph - N/A   Clear
3:55 PM 51.8 °F - 30.2 °F 44% 30.01 in 10.0 mi WNW 10.4 mph - N/A   Clear
4:15 PM 53.6 °F - 30.2 °F 41% 30.02 in 10.0 mi NNW 8.1 mph - N/A   Clear
4:35 PM 51.8 °F - 30.2 °F 44% 30.02 in 10.0 mi West 11.5 mph - N/A   Clear
4:55 PM 51.8 °F - 30.2 °F 44% 30.02 in 10.0 mi West 8.1 mph - N/A   Clear
5:15 PM 51.8 °F - 30.2 °F 44% 30.02 in 10.0 mi WNW 8.1 mph - N/A   Clear
5:35 PM 51.8 °F - 30.2 °F 44% 30.02 in 10.0 mi WNW 11.5 mph - N/A   Clear
5:55 PM 51.8 °F - 30.2 °F 44% 30.02 in 10.0 mi WNW 6.9 mph - N/A   Clear
6:15 PM 50.0 °F - 30.2 °F 47% 30.03 in 10.0 mi WNW 5.8 mph - N/A   Clear
6:35 PM 46.4 °F - 30.2 °F 53% 30.03 in 10.0 mi Calm Calm - N/A   Clear
7:15 PM 46.4 °F 45.2 °F 30.2 °F 53% 30.03 in 10.0 mi WNW 3.5 mph - N/A   Clear
7:35 PM 44.6 °F 42.2 °F 30.2 °F 57% 30.04 in 10.0 mi West 4.6 mph - N/A   Clear
7:55 PM 44.6 °F - 30.2 °F 57% 30.04 in 10.0 mi Calm Calm - N/A   Clear
8:15 PM 42.8 °F - 30.2 °F 61% 30.04 in 10.0 mi Calm Calm - N/A   Clear
8:35 PM 42.8 °F - 30.2 °F 61% 30.04 in 10.0 mi Calm Calm - N/A   Clear
8:55 PM 42.8 °F - 30.2 °F 61% 30.05 in 10.0 mi Calm Calm - N/A   Clear
9:35 PM 42.8 °F - 30.2 °F 61% 30.06 in 10.0 mi Calm Calm - N/A   Clear
9:55 PM 42.8 °F - 30.2 °F 61% 30.07 in 10.0 mi Calm Calm - N/A   Clear
10:15 PM 42.8 °F - 30.2 °F 61% 30.08 in 10.0 mi Calm Calm - N/A   Clear
10:35 PM 41.0 °F - 30.2 °F 65% 30.08 in 10.0 mi Calm Calm - N/A   Clear
10:55 PM 41.0 °F - 30.2 °F 65% 30.08 in 10.0 mi Calm Calm - N/A   Clear
11:15 PM 41.0 °F - 30.2 °F 65% 30.07 in 10.0 mi Calm Calm - N/A   Clear
11:35 PM 39.2 °F - 30.2 °F 70% 30.08 in 10.0 mi Calm Calm - N/A   Clear
11:55 PM 39.2 °F - 30.2 °F 70% 30.07 in 10.0 mi Calm Calm - N/A   Clear